Location: Tierra del Sol
(32.6128°N, 116.3319°W)
Time: 16:46:40
(UTC-07:00)

N. Korean satellite - Pass Details

Date: 12 October 2017
Orbit: 459 x 517 km, 97.2° (Epoch: 19 October)

Event Time Altitude Azimuth Distance (km) Brightness Sun altitude
Rises 18:42:06 0° 160° (SSE) 2,566 10.1 -6.4°
Reaches altitude 10° 18:44:12 10° 157° (SSE) 1,678 9.1 -6.8°
Maximum altitude 18:47:45 60° 77° (ENE) 561 6.6 -7.6°
Drops below altitude 10° 18:51:16 10° 357° (N) 1,657 9.3 -8.3°
Sets 18:53:19 0° 354° (N) 2,530 10.2 -8.7°
